Stündliche Wetter Abtsgmund

Heute, 24 Juni, Donnerstag

Zeit Temperatur Niederschläge Wind Luftdruck Luftfeuchtigkeit
00:00 +16°C° 2.8 mm 1 m/S 721 mmHg 97%
01:00 +16°C° 2.8 mm 1 m/S 721 mmHg 97%
02:00 +15°C° 0.3 mm 1 m/S 721 mmHg 96%
03:00 +15°C° 0.3 mm 1 m/S 721 mmHg 96%
04:00 +14°C° 0.3 mm 0 m/S 721 mmHg 95%
05:00 +14°C° 0.2 mm 0 m/S 721 mmHg 94%
06:00 +15°C° 0.2 mm 0 m/S 721 mmHg 94%
07:00 +15°C° 0.2 mm 0 m/S 721 mmHg 93%
08:00 +18°C° 0.5 mm 1 m/S 722 mmHg 91%
09:00 +19°C° 0.5 mm 1 m/S 722 mmHg 89%
10:00 +18°C° 0.5 mm 2 m/S 722 mmHg 87%
11:00 +19°C° 1.2 mm 2 m/S 722 mmHg 85%
12:00 +20°C° 1.2 mm 2 m/S 722 mmHg 83%
13:00 +20°C° 1.2 mm 2 m/S 722 mmHg 80%
14:00 +20°C° 0.8 mm 2 m/S 721 mmHg 80%
15:00 +20°C° 0.8 mm 2 m/S 721 mmHg 80%
16:00 +20°C° 0.8 mm 2 m/S 721 mmHg 79%
17:00 +20°C° 0.8 mm 2 m/S 721 mmHg 83%
18:00 +19°C° 0.8 mm 2 m/S 721 mmHg 86%
19:00 +19°C° 0.8 mm 1 m/S 721 mmHg 90%
20:00 +18°C° 1.7 mm 1 m/S 721 mmHg 93%
21:00 +16°C° 1.7 mm 1 m/S 721 mmHg 95%
22:00 +15°C° 1.7 mm 1 m/S 722 mmHg 97%
23:00 +15°C° 2 mm 2 m/S 722 mmHg 97%

Morgen, 25 Juni, Freitag

Zeit Temperatur Niederschläge Wind Luftdruck Luftfeuchtigkeit
00:00 +15°C° 2 mm 2 m/S 722 mmHg 97%
01:00 +14°C° 2 mm 3 m/S 721 mmHg 97%
02:00 +13°C° 1 mm 3 m/S 721 mmHg 97%
03:00 +13°C° 1 mm 3 m/S 721 mmHg 97%
04:00 +13°C° 1 mm 3 m/S 721 mmHg 97%
05:00 +13°C° 0.7 mm 3 m/S 722 mmHg 97%
06:00 +13°C° 0.7 mm 4 m/S 722 mmHg 97%
07:00 +13°C° 0.7 mm 4 m/S 722 mmHg 98%
08:00 +13°C° 0.1 mm 4 m/S 722 mmHg 97%
09:00 +13°C° 0.1 mm 4 m/S 722 mmHg 95%
10:00 +13°C° 0.1 mm 4 m/S 722 mmHg 94%
11:00 +14°C° 0.1 mm 3 m/S 722 mmHg 88%
12:00 +17°C° 0.1 mm 3 m/S 722 mmHg 81%
13:00 +18°C° 0.1 mm 3 m/S 722 mmHg 75%
14:00 +18°C° 0.1 mm 3 m/S 722 mmHg 73%
15:00 +19°C° 0.1 mm 3 m/S 722 mmHg 72%
16:00 +19°C° 0.1 mm 2 m/S 722 mmHg 71%
17:00 +19°C° 0.3 mm 2 m/S 722 mmHg 77%
18:00 +19°C° 0.3 mm 1 m/S 722 mmHg 83%
19:00 +18°C° 0.3 mm 1 m/S 722 mmHg 89%
20:00 +16°C° 0.2 mm 1 m/S 722 mmHg 90%
21:00 +15°C° 0.2 mm 1 m/S 722 mmHg 91%
22:00 +14°C° 0.2 mm 1 m/S 723 mmHg 92%
23:00 +13°C° 0 mm 1 m/S 723 mmHg 93%

übermorgen, 26 Juni, Samstag

Zeit Temperatur Niederschläge Wind Luftdruck Luftfeuchtigkeit
00:00 +13°C° 0 mm 1 m/S 723 mmHg 93%
01:00 +12°C° 0 mm 0 m/S 722 mmHg 93%
02:00 +11°C° 0 mm 0 m/S 722 mmHg 93%
03:00 +11°C° 0 mm 0 m/S 722 mmHg 93%
04:00 +11°C° 0 mm 0 m/S 722 mmHg 92%
05:00 +12°C° 0 mm 0 m/S 722 mmHg 91%
06:00 +13°C° 0 mm 0 m/S 722 mmHg 90%
07:00 +15°C° 0 mm 1 m/S 723 mmHg 88%
08:00 +18°C° 0 mm 1 m/S 723 mmHg 81%
09:00 +20°C° 0 mm 1 m/S 723 mmHg 74%
10:00 +21°C° 0 mm 1 m/S 723 mmHg 66%
11:00 +22°C° 0 mm 1 m/S 722 mmHg 64%
12:00 +23°C° 0 mm 1 m/S 722 mmHg 61%
13:00 +23°C° 0 mm 1 m/S 722 mmHg 59%
14:00 +24°C° 0 mm 1 m/S 722 mmHg 59%
15:00 +24°C° 0 mm 1 m/S 722 mmHg 58%
16:00 +24°C° 0 mm 1 m/S 722 mmHg 58%
17:00 +23°C° 0 mm 1 m/S 721 mmHg 65%
18:00 +22°C° 0 mm 1 m/S 721 mmHg 71%
19:00 +22°C° 0 mm 1 m/S 721 mmHg 78%
20:00 +20°C° 0 mm 1 m/S 721 mmHg 81%
21:00 +19°C° 0 mm 1 m/S 721 mmHg 84%
22:00 +16°C° 0 mm 1 m/S 721 mmHg 87%
23:00 +16°C° 0 mm 1 m/S 721 mmHg 88%

27 Juni, Sonntag

Zeit Temperatur Niederschläge Wind Luftdruck Luftfeuchtigkeit
00:00 +15°C° 0 mm 1 m/S 720 mmHg 89%
01:00 +15°C° 0 mm 1 m/S 720 mmHg 90%
02:00 +15°C° 0 mm 1 m/S 720 mmHg 91%
03:00 +14°C° 0 mm 1 m/S 720 mmHg 92%
04:00 +14°C° 0 mm 1 m/S 720 mmHg 92%
05:00 +15°C° 0 mm 2 m/S 720 mmHg 88%
06:00 +17°C° 0 mm 2 m/S 720 mmHg 83%
07:00 +18°C° 0 mm 2 m/S 720 mmHg 79%
08:00 +19°C° 0 mm 3 m/S 720 mmHg 74%
09:00 +21°C° 0 mm 3 m/S 720 mmHg 70%
10:00 +24°C° 0 mm 3 m/S 720 mmHg 65%
11:00 +25°C° 0 mm 3 m/S 720 mmHg 62%
12:00 +26°C° 0 mm 2 m/S 720 mmHg 60%
13:00 +27°C° 0 mm 2 m/S 720 mmHg 57%
14:00 +27°C° 0 mm 2 m/S 720 mmHg 57%
15:00 +27°C° 0 mm 3 m/S 720 mmHg 57%
16:00 +28°C° 0 mm 3 m/S 719 mmHg 58%
17:00 +26°C° 0 mm 2 m/S 719 mmHg 65%
18:00 +25°C° 0 mm 2 m/S 719 mmHg 72%
19:00 +24°C° 0 mm 2 m/S 719 mmHg 79%
20:00 +23°C° 0 mm 1 m/S 719 mmHg 80%
21:00 +22°C° 0 mm 1 m/S 719 mmHg 81%
22:00 +21°C° 0 mm 1 m/S 719 mmHg 82%
23:00 +20°C° 0.1 mm 1 m/S 719 mmHg 83%

28 Juni, Montag

Zeit Temperatur Niederschläge Wind Luftdruck Luftfeuchtigkeit
00:00 +20°C° 0.1 mm 1 m/S 719 mmHg 84%
01:00 +20°C° 0.1 mm 1 m/S 719 mmHg 86%
02:00 +19°C° 0 mm 1 m/S 719 mmHg 86%
03:00 +19°C° 0 mm 1 m/S 718 mmHg 87%
04:00 +18°C° 0 mm 1 m/S 718 mmHg 87%
05:00 +19°C° 0 mm 1 m/S 718 mmHg 85%
06:00 +20°C° 0 mm 1 m/S 719 mmHg 84%
07:00 +19°C° 0 mm 0 m/S 719 mmHg 82%
08:00 +22°C° 0 mm 1 m/S 719 mmHg 78%
09:00 +23°C° 0 mm 2 m/S 719 mmHg 75%
10:00 +24°C° 0 mm 3 m/S 720 mmHg 71%
11:00 +24°C° 0.1 mm 3 m/S 720 mmHg 75%
12:00 +22°C° 0.1 mm 4 m/S 720 mmHg 78%
13:00 +22°C° 0.1 mm 4 m/S 720 mmHg 82%
14:00 +22°C° 0.1 mm 5 m/S 720 mmHg 82%
15:00 +21°C° 0.1 mm 5 m/S 721 mmHg 83%
16:00 +21°C° 0.1 mm 5 m/S 721 mmHg 84%
17:00 +20°C° 0.7 mm 4 m/S 721 mmHg 88%
18:00 +19°C° 0.7 mm 4 m/S 721 mmHg 92%
19:00 +18°C° 0.7 mm 3 m/S 721 mmHg 96%
20:00 +18°C° 0.5 mm 2 m/S 721 mmHg 95%
21:00 +17°C° 0.5 mm 2 m/S 721 mmHg 94%
22:00 +16°C° 0.5 mm 1 m/S 721 mmHg 94%
23:00 +16°C° 0 mm 1 m/S 721 mmHg 94%

29 Juni, Dienstag

Zeit Temperatur Niederschläge Wind Luftdruck Luftfeuchtigkeit
00:00 +16°C° 0 mm 1 m/S 721 mmHg 95%
01:00 +16°C° 0 mm 1 m/S 721 mmHg 95%
02:00 +16°C° 0 mm 1 m/S 721 mmHg 95%
03:00 +16°C° 0 mm 1 m/S 721 mmHg 96%
04:00 +16°C° 0 mm 1 m/S 721 mmHg 96%
05:00 +16°C° 0 mm 1 m/S 721 mmHg 95%
06:00 +17°C° 0 mm 2 m/S 721 mmHg 95%
07:00 +17°C° 0 mm 2 m/S 721 mmHg 94%
08:00 +18°C° 0 mm 2 m/S 721 mmHg 88%
09:00 +19°C° 0 mm 2 m/S 721 mmHg 82%
10:00 +21°C° 0 mm 3 m/S 721 mmHg 77%
11:00 +21°C° 0 mm 3 m/S 721 mmHg 74%
12:00 +22°C° 0 mm 3 m/S 721 mmHg 71%
13:00 +24°C° 0 mm 2 m/S 721 mmHg 69%
14:00 +24°C° 0.3 mm 2 m/S 721 mmHg 73%
15:00 +23°C° 0.3 mm 2 m/S 720 mmHg 78%
16:00 +23°C° 0.3 mm 2 m/S 720 mmHg 82%
17:00 +23°C° 0.7 mm 2 m/S 720 mmHg 85%
18:00 +21°C° 0.7 mm 2 m/S 720 mmHg 88%
19:00 +22°C° 0.7 mm 1 m/S 720 mmHg 91%
20:00 +21°C° 0.2 mm 1 m/S 720 mmHg 92%
21:00 +20°C° 0.2 mm 1 m/S 720 mmHg 94%
22:00 +19°C° 0.2 mm 1 m/S 720 mmHg 96%
23:00 +17°C° 1.1 mm 2 m/S 721 mmHg 96%
Mehr zeigen

Wir brauchen deine Erlaubnis

Meteoprog und unser Service Anbieter werden persönliche Daten aufbewahren, so wie Cookies, Geräte Bezeichnung oder ähnliche Technologien von deinem Gerät und Prozess, so wie Persönliche Daten Inhalte und Werbungen, genauso wie social Media und den Verkehr zu analysieren.

  • Aufbewahrung und/oder Zugang zu deiner Geräte Informationen.

    Cookies, Geräte Bezeichnung oder andere Informationen, können aufbewahrt oder Zugang zu deinem Gerät erhalten, für den Grund, der oben angegeben wird.

  • Personalisierte Werbung und Inhalte, Messungen, Einblick in das Publikum und Produkt Entwicklung.

    Werbungen und Inhalte können personalisiert werden, basierend auf ein Profil. Mehr Daten können besser personalisierte Werbungen und Inhalte hinzufügen. Werbung und Inhalte können gezeigt und gemessen werden. Einblicke über das Publikum, welche die Werbung gesehen haben und den Inhalt, können abgeleitet werden. So wie Daten können genutzt werden, um es zu verbessern oder die Benutzer Erfahrung zu verbessern das System und die Software.

Wenn du “Ich stimme zu” klickst, erlaubst du uns, die Cookies zu benutzen die Geräte Bezeichnung, den Web oder ähnliche Technologien zu benutzen. Deine Settings, können in deinem Gerät bei deinem Browser geändert werden.

Für den bestimmten Zweck, berechtigten Interessen beruhen darauf, mehr als auf den Inhalt. Du kannst mehr darüber in unseren Privaten und Cookie Politik lesen.